Tracking 28081 objects as of 26-Sep-2023
HD Live streaming from Space Station
objects crossing your sky now

STARLINK-1994

Track STARLINK-1994 now!
10-day predictions
STARLINK-1994 is classified as:


NORAD ID: 47589
Int'l Code: 2021-009AT
Perigee: 553.4 km
Apogee: 555.1 km
Inclination: 53.1 °
Period: 95.6 minutes
Semi major axis: 6925 km
RCS: Unknown
Launch date: February 4, 2021
Source: United States (US)
Launch site: AIR FORCE EASTERN TEST RANGE (AFETR)
Your satellite tracking list
Your tracking list is empty




NASA's NSSDC Master Catalog

Two Line Element Set (TLE):
1 47589U 21009AT  23268.86549790  .00022314  00000-0  15108-2 0  9993
2 47589  53.0544  83.1293 0001174 112.1376 247.9737 15.06433216145770
Source of the keplerian elements: AFSPC